When you browse on this site, cookies collect data to enhance your experience and personalize the content and advertising you see.
Visit our Privacy Policy to learn more. By continuing to use the site, you agree to this use of cookies and data.
  • In Schweiz
  • Länderverzeichnis
  • Für 7 Tage
  • Wassertemperatur
  • Satellitenkarten
  • Wetterkarte
  • Widgets
  • user-avatar
    Anmelden

    Stündliche Wetter Tovchenykove

    Heute, 16 Juli, Dienstag

    Zeit Temperatur Niederschläge Wind Luftdruck Luftfeuchtigkeit
    00:00 +16°C° 0.1 mm 1 m/S 739 mmHg 91%
    01:00 +15°C° 0.1 mm 1 m/S 739 mmHg 91%
    02:00 +15°C° 0.1 mm 1 m/S 739 mmHg 91%
    03:00 +15°C° 0 mm 1 m/S 739 mmHg 91%
    04:00 +16°C° 0 mm 1 m/S 739 mmHg 90%
    05:00 +15°C° 0 mm 0 m/S 739 mmHg 90%
    06:00 +18°C° 0 mm 1 m/S 739 mmHg 88%
    07:00 +17°C° 0 mm 2 m/S 739 mmHg 86%
    08:00 +18°C° 0 mm 2 m/S 739 mmHg 85%
    09:00 +19°C° 0.6 mm 2 m/S 739 mmHg 80%
    10:00 +20°C° 0.6 mm 2 m/S 739 mmHg 76%
    11:00 +21°C° 0.6 mm 2 m/S 739 mmHg 72%
    12:00 +23°C° 0.4 mm 2 m/S 739 mmHg 69%
    13:00 +23°C° 0.4 mm 2 m/S 739 mmHg 66%
    14:00 +24°C° 0.4 mm 2 m/S 738 mmHg 63%
    15:00 +23°C° 1.1 mm 2 m/S 738 mmHg 67%
    16:00 +23°C° 1.1 mm 1 m/S 738 mmHg 71%
    17:00 +23°C° 1.1 mm 1 m/S 738 mmHg 76%
    18:00 +21°C° 0.6 mm 1 m/S 738 mmHg 78%
    19:00 +20°C° 0.6 mm 1 m/S 738 mmHg 81%
    20:00 +18°C° 0.6 mm 1 m/S 738 mmHg 83%
    21:00 +18°C° 0 mm 1 m/S 738 mmHg 85%
    22:00 +16°C° 0 mm 1 m/S 738 mmHg 86%
    23:00 +16°C° 0 mm 1 m/S 738 mmHg 87%

    Morgen, 17 Juli, Mittwoch

    Zeit Temperatur Niederschläge Wind Luftdruck Luftfeuchtigkeit
    00:00 +15°C° 0 mm 1 m/S 738 mmHg 89%
    01:00 +15°C° 0 mm 1 m/S 737 mmHg 90%
    02:00 +15°C° 0 mm 1 m/S 737 mmHg 91%
    03:00 +15°C° 0.1 mm 1 m/S 737 mmHg 91%
    04:00 +15°C° 0.1 mm 1 m/S 737 mmHg 91%
    05:00 +15°C° 0.1 mm 1 m/S 737 mmHg 92%
    06:00 +16°C° 0.1 mm 1 m/S 737 mmHg 87%
    07:00 +19°C° 0.1 mm 1 m/S 737 mmHg 83%
    08:00 +19°C° 0.1 mm 2 m/S 737 mmHg 78%
    09:00 +20°C° 0.3 mm 3 m/S 737 mmHg 74%
    10:00 +21°C° 0.3 mm 3 m/S 737 mmHg 69%
    11:00 +22°C° 0.3 mm 4 m/S 737 mmHg 64%
    12:00 +22°C° 0.4 mm 4 m/S 736 mmHg 67%
    13:00 +22°C° 0.4 mm 5 m/S 736 mmHg 69%
    14:00 +22°C° 0.4 mm 5 m/S 736 mmHg 71%
    15:00 +21°C° 0.2 mm 5 m/S 736 mmHg 71%
    16:00 +21°C° 0.2 mm 5 m/S 736 mmHg 71%
    17:00 +20°C° 0.2 mm 4 m/S 736 mmHg 71%
    18:00 +19°C° 0.3 mm 4 m/S 736 mmHg 77%
    19:00 +17°C° 0.3 mm 4 m/S 736 mmHg 83%
    20:00 +16°C° 0.3 mm 3 m/S 737 mmHg 88%
    21:00 +14°C° 0 mm 3 m/S 737 mmHg 90%
    22:00 +13°C° 0 mm 3 m/S 737 mmHg 92%
    23:00 +12°C° 0 mm 3 m/S 737 mmHg 95%

    übermorgen, 18 Juli, Donnerstag

    Zeit Temperatur Niederschläge Wind Luftdruck Luftfeuchtigkeit
    00:00 +12°C° 0 mm 3 m/S 737 mmHg 95%
    01:00 +11°C° 0 mm 3 m/S 737 mmHg 95%
    02:00 +11°C° 0 mm 3 m/S 737 mmHg 95%
    03:00 +11°C° 0 mm 3 m/S 737 mmHg 95%
    04:00 +11°C° 0 mm 3 m/S 737 mmHg 95%
    05:00 +12°C° 0 mm 2 m/S 737 mmHg 95%
    06:00 +12°C° 0 mm 3 m/S 737 mmHg 90%
    07:00 +14°C° 0 mm 4 m/S 737 mmHg 86%
    08:00 +17°C° 0 mm 4 m/S 737 mmHg 82%
    09:00 +17°C° 0.3 mm 5 m/S 737 mmHg 78%
    10:00 +19°C° 0.3 mm 5 m/S 738 mmHg 75%
    11:00 +20°C° 0.3 mm 6 m/S 738 mmHg 71%
    12:00 +20°C° 0.3 mm 6 m/S 738 mmHg 69%
    13:00 +20°C° 0.3 mm 6 m/S 738 mmHg 67%
    14:00 +21°C° 0.3 mm 6 m/S 738 mmHg 65%
    15:00 +21°C° 0.1 mm 5 m/S 738 mmHg 66%
    16:00 +21°C° 0.1 mm 5 m/S 738 mmHg 67%
    17:00 +21°C° 0.1 mm 5 m/S 739 mmHg 68%
    18:00 +19°C° 0 mm 4 m/S 739 mmHg 73%
    19:00 +18°C° 0 mm 4 m/S 739 mmHg 79%
    20:00 +16°C° 0 mm 3 m/S 739 mmHg 84%
    21:00 +14°C° 0 mm 3 m/S 739 mmHg 86%
    22:00 +14°C° 0 mm 3 m/S 739 mmHg 89%
    23:00 +13°C° 0 mm 3 m/S 739 mmHg 91%

    19 Juli, Freitag

    Zeit Temperatur Niederschläge Wind Luftdruck Luftfeuchtigkeit
    00:00 +13°C° 0 mm 3 m/S 739 mmHg 92%
    01:00 +13°C° 0 mm 3 m/S 739 mmHg 93%
    02:00 +12°C° 0 mm 4 m/S 739 mmHg 94%
    03:00 +13°C° 0 mm 4 m/S 739 mmHg 94%
    04:00 +13°C° 0 mm 4 m/S 740 mmHg 93%
    05:00 +13°C° 0 mm 4 m/S 740 mmHg 93%
    06:00 +15°C° 0 mm 5 m/S 740 mmHg 89%
    07:00 +16°C° 0 mm 5 m/S 740 mmHg 85%
    08:00 +17°C° 0 mm 5 m/S 740 mmHg 82%
    09:00 +19°C° 0.1 mm 5 m/S 741 mmHg 80%
    10:00 +20°C° 0.1 mm 5 m/S 741 mmHg 78%
    11:00 +21°C° 0.1 mm 6 m/S 741 mmHg 76%
    12:00 +21°C° 0.4 mm 6 m/S 741 mmHg 74%
    13:00 +22°C° 0.4 mm 6 m/S 741 mmHg 73%
    14:00 +22°C° 0.4 mm 6 m/S 742 mmHg 71%
    15:00 +22°C° 0.3 mm 5 m/S 742 mmHg 72%
    16:00 +22°C° 0.3 mm 5 m/S 742 mmHg 73%
    17:00 +22°C° 0.3 mm 4 m/S 742 mmHg 74%
    18:00 +21°C° 0.1 mm 4 m/S 742 mmHg 78%
    19:00 +19°C° 0.1 mm 3 m/S 743 mmHg 83%
    20:00 +17°C° 0.1 mm 3 m/S 743 mmHg 87%
    21:00 +17°C° 0 mm 3 m/S 743 mmHg 88%
    22:00 +16°C° 0 mm 3 m/S 744 mmHg 89%
    23:00 +16°C° 0 mm 3 m/S 744 mmHg 90%

    20 Juli, Samstag

    Zeit Temperatur Niederschläge Wind Luftdruck Luftfeuchtigkeit
    00:00 +14°C° 0 mm 3 m/S 744 mmHg 90%
    01:00 +14°C° 0 mm 3 m/S 744 mmHg 90%
    02:00 +14°C° 0 mm 3 m/S 744 mmHg 90%
    03:00 +14°C° 0 mm 2 m/S 744 mmHg 89%
    04:00 +14°C° 0 mm 2 m/S 745 mmHg 89%
    05:00 +14°C° 0 mm 2 m/S 745 mmHg 89%
    06:00 +16°C° 0 mm 2 m/S 745 mmHg 84%
    07:00 +18°C° 0 mm 2 m/S 745 mmHg 79%
    08:00 +20°C° 0 mm 3 m/S 746 mmHg 73%
    09:00 +22°C° 0 mm 3 m/S 746 mmHg 69%
    10:00 +24°C° 0 mm 3 m/S 746 mmHg 64%
    11:00 +25°C° 0 mm 3 m/S 747 mmHg 59%
    12:00 +25°C° 0 mm 3 m/S 747 mmHg 58%
    13:00 +26°C° 0 mm 3 m/S 746 mmHg 58%
    14:00 +26°C° 0 mm 3 m/S 746 mmHg 57%
    15:00 +26°C° 0.1 mm 2 m/S 746 mmHg 59%
    16:00 +26°C° 0.1 mm 2 m/S 746 mmHg 61%
    17:00 +26°C° 0.1 mm 2 m/S 747 mmHg 62%
    18:00 +24°C° 0.1 mm 1 m/S 747 mmHg 69%
    19:00 +22°C° 0.1 mm 1 m/S 747 mmHg 75%
    20:00 +20°C° 0.1 mm 1 m/S 747 mmHg 81%
    21:00 +20°C° 0 mm 1 m/S 747 mmHg 81%
    22:00 +19°C° 0 mm 1 m/S 747 mmHg 82%
    23:00 +19°C° 0 mm 1 m/S 747 mmHg 83%

    21 Juli, Sonntag

    Zeit Temperatur Niederschläge Wind Luftdruck Luftfeuchtigkeit
    00:00 +19°C° 0 mm 1 m/S 747 mmHg 84%
    01:00 +18°C° 0 mm 1 m/S 747 mmHg 86%
    02:00 +16°C° 0 mm 0 m/S 747 mmHg 87%
    03:00 +18°C° 0 mm 1 m/S 747 mmHg 87%
    04:00 +18°C° 0 mm 1 m/S 747 mmHg 87%
    05:00 +18°C° 0 mm 1 m/S 747 mmHg 87%
    06:00 +20°C° 0.1 mm 1 m/S 747 mmHg 83%
    07:00 +21°C° 0.1 mm 1 m/S 747 mmHg 79%
    08:00 +23°C° 0.1 mm 1 m/S 748 mmHg 75%
    09:00 +24°C° 1.2 mm 1 m/S 748 mmHg 73%
    10:00 +24°C° 1.2 mm 1 m/S 748 mmHg 72%
    11:00 +25°C° 1.2 mm 1 m/S 748 mmHg 70%
    12:00 +25°C° 1.8 mm 1 m/S 748 mmHg 70%
    13:00 +25°C° 1.8 mm 1 m/S 748 mmHg 70%
    14:00 +25°C° 1.8 mm 1 m/S 748 mmHg 69%
    15:00 +25°C° 1 mm 2 m/S 747 mmHg 71%
    16:00 +25°C° 1 mm 2 m/S 747 mmHg 73%
    17:00 +25°C° 1 mm 2 m/S 747 mmHg 75%
    18:00 +24°C° 0.1 mm 2 m/S 747 mmHg 79%
    19:00 +21°C° 0.1 mm 2 m/S 747 mmHg 82%
    20:00 +20°C° 0.1 mm 2 m/S 748 mmHg 86%
    21:00 +19°C° 0 mm 2 m/S 748 mmHg 87%
    22:00 +18°C° 0 mm 2 m/S 748 mmHg 88%
    23:00 +19°C° 0 mm 1 m/S 748 mmHg 88%
    Mehr zeigen